STARLINK-11241, 60936

Orbit data source: Space-Track

STARLINK-11241, 60936 is a payload satellite owned by SpaceX/Seattle (US) in LEO that was launched on Sat, 31 Aug 2024 UTC via an FALCON 9 launch vehicle from the Air Force Western Test Range (AFWTR). Payloads include a variety of satellites, spacecraft, and rockets equipped with specific instruments for various scientific and technological missions. These include communications satellites like Starlink; space stations such as the ISS; scientific satellites like the Hubble; Earth observation satellites from companies like Planet Labs, Umbra, and HawkEye 360; GPS; miniature CubeSats for education and research; and military/defense satellites.

Loading next visibility...
STARLINK-11241 details
Identifier
60936, 2024-155N
Orbit
LEO
Last TLE update14 hours ago
Origin
Flag of USSpaceX/Seattle (US)
ManufacturerSpaceX/Seattle
MissionOperational spacecraft
Bus & MotorSTARLINK V2M, Unknown motor
Mass730 kg wet, ~700 kg dry
Launch date (UTC)
2024-08-31 (5 months ago)
Launch vehicle
FALCON 9
Launch site
Air Force Western Test Range (AFWTR)
Object type
Payload
Rocket body
Debris
Shape & HBRUnknown
Radar Cross SectionMedium (>0.1 m² and <1 m²)

Expand to show TLE details & history

TLE from 14 hours ago
0 STARLINK-11241
1 60936U 24155N   25015.02951850 -.00002195  00000-0 -13264-4 0  9993
2 60936  53.1597 245.3423 0001187  67.0384 293.0759 15.69709940 22632
Epoch: 2025-01-15T00:42Z
Definitive object data (Epoch: 2025-01-15T00:42:30.398Z)
Latitude-0.00002°
Longitude119.9879°
Altitude360.329 km
Speed7.694 km/s
True Right ascension16h 21m 22s
True Declination0° 00' 00"
Sunlit
Object was in daylight at TLE epoch
Visualization TLE readout
Latitude37.69703°
Longitude152.26994°
Altitude362.083 km
Speed7.697 km/s
Apparent Right ascension22h 33m 19s
Apparent Declination0° 24' 30"
Sunlit
Object is in daylight
Visualization observer readout
Local Sidereal Time15:21:00
Azimuth77.853° E
Elevation-13.501°
Doppler factor1
Orbital elements
Apogee altitude360.787 km
Perigee altitude359.188 km
Semi-major axis6,738.125 km
Eccentricity0.0001187
Inclination53.1597°
RAAN245.3423°
Arg. of periapsis67.0384°
True anomaly293.06339°
Mean anomaly293.0759°
Eccentric anomaly293.06964°
Mean motion3.92405 °/min
BSTAR-0.000013264
Orbital period91.74 mins
Loading maneuver chart data...
Loading historical data...
Loading historical data...
Loading historical data...
Loading historical data...
Loading historical data...
Loading historical data...
Loading historical data...

STARLINK-11241 Visibility forecast

Observer location: undefined°, undefined

Span
Click to sort rows by Start time (UTC) header in descending order
Start Az.
Max El. time (UTC)
Max El. Az.
Max El.
End time (UTC)
End Az.
5 mins2025-01-15 17:41:16.338Z214.709° SW2025-01-15 17:44:16.338Z105.689° ESE37.742°2025-01-15 17:46:16.338Z60.366° ENE
4 mins2025-01-16 00:07:16.338Z343.059° N2025-01-16 00:08:16.338Z17.332° NNE29.357°2025-01-16 00:11:16.338Z102.856° ESE
|